Location: Caltech
(34.1382°N, 118.1253°W)
Time: 19:20:45
(UTC-07:00)

COSMOS 2428 - Visible Passes

Search period start: 26 June 2016 00:00
Search period end: 06 July 2016 00:00
Orbit: 846 x 857 km, 70.9° (Epoch: 26 June)

Date Brightness Start Highest point End Pass type
(mag) Time Alt. Az. Time Alt. Az. Time Alt. Az.
26 Jun 4.8 21:00:39 10° NNE 21:03:00 12° NE 21:05:20 10° ENE visible
26 Jun 2.6 22:42:14 10° NNW 22:47:56 84° WSW 22:48:48 65° S visible
27 Jun 4.7 20:48:28 10° NNE 20:50:49 12° NE 20:53:09 10° ENE visible
27 Jun 2.6 22:30:03 10° NNW 22:35:45 84° WSW 22:37:03 55° S visible
28 Jun 4.7 20:36:16 10° NNE 20:38:37 12° NE 20:40:59 10° ENE visible
28 Jun 2.6 22:17:52 10° NNW 22:23:34 84° WSW 22:25:20 46° SSE visible
29 Jun 2.7 22:05:41 10° NNW 22:11:23 84° WSW 22:13:38 38° SSE visible
30 Jun 2.7 21:53:30 10° NNW 21:59:12 84° WSW 22:02:01 31° SSE visible
01 Jul 2.7 21:41:18 10° NNW 21:47:00 84° WSW 21:50:26 25° SSE visible
02 Jul 2.7 21:29:07 10° NNW 21:34:49 83° WSW 21:38:53 20° SSE visible
03 Jul 2.8 21:16:56 10° NNW 21:22:38 83° WSW 21:27:24 15° SSE visible
04 Jul 2.8 21:04:45 10° NNW 21:10:27 83° WSW 21:15:59 11° SSE visible
05 Jul 2.8 20:52:33 10° NNW 20:58:16 83° WSW 21:03:57 10° SSE visible
